OPS 7034 (TRANSIT 18)

导读

OPS 7034,又称TRANSIT 18,是美国于1968年3月2日发射的导航卫星,属于美军Transit系列卫星,该系列是世界上第一个卫星导航系统,为早期海上舰船提供导航定位服务。 它依托多普勒定位原理工作,为全球用户提供定位服务,验证了卫星导航的早期技术方案,奠定了现代全球导航系统发展基础,推动了人类卫星导航技术的进步。作为美国早期太空布局的组成部分,在导航卫星发展史上具有重要里程碑意义。

Basic Information
目录编号:
3133
目录名称:
OPS 7034 (TRANSIT 18)
国际标识:
1968-012A
轨道中心:
EARTH
卫星名称:
OPS 7034 (TRANSIT 18)
卫星全名:
--
卫星状态:
在轨 (已飞行21318 天)
发射日期:
1968-03-02 UTC
国别 :
美国 (US)
星等 :
--
Orbit Information
数据来源 国际轨道数据
星历时间: 2026-07-14T13:03:03+0800
6小时前
查看轨道信息
半长轴: 7444.466km
偏心率: 0.0071625
轨道倾角: 90.028°
近地点辐角 272.038°
升交点赤经 274.185°
平近点角 141.467°
近地点: 1013.008km
远地点: 1119.65km
周期: 106.539分钟
每日圈数: 13.516133
Detailed Information
使用方式:
暂无
2D Orbit Map
3D Orbit Map
Orbit Altitude Analysis Chart
Orbit Inclination Analysis Chart
Orbit Comprehensive Analysis Chart
View Comprehensive Chart